Probability
0 0 0 0 1 2 2 1 0 0 0 0 1 2 2 1 0 0 0 0 0 0 0 0 0 0 0 0 0 0 0 0 0 0 0 0 0 0 0 0 0 0 0
0 0 0 0 0 1 1 1 0 0 0 0 0 1 1 1 0 0 0 0 0 0 0 0 0 0 0 0 0 0 0 0 0 0 0 0 0 0 0 0 0 0 0
0 0 0 0 0 0 0 0 0 0 0 0 0 0 0 0 0 0 0 0 0 0 0 0 0 0 0 0 0 0 0 0 0 0 0 0 0 0 0 0 0 0 0
0 0 0 0 0 0 0 0 0 0 0 0 0 0 0 0 0 0 0 0 0 0 0 0 0 0 0 0 0 0 0 0 0 0 0 0 0 0 0 0 0 0 0
0 0 0 0 0 0 0 0 0 0 0 0 0 0 0 0 0 0 0 0 0 0 0 0 0 0 0 0 0 0 0 0 0 0 0 0 0 0 0 0 0 0 0
0 0 0 0 0 0 0 0 0 0 0 0 0 0 0 0 0 0 0 0 0 0 0 0 0 0 0 0 0 0 0 0 0 0 0 0 0 0 0 0 0 0 0
0 0 0 0 0 0 0 0 0 0 0 0 0 0 0 0 0 0 0 0 0 0 0 0 0 0 0 0 0 0 0 0 0 0 0 0 0 0 0 0 0 0 0
0 0 0 0 0 0 0 0 0 0 0 0 0 0 0 0 0 0 0 0 0 0 0 0 0 0 0 0 0 0 0 0 0 0 0 0 0 0 0 0 0 0 0
0 0 0 0 0 0 0 0 0 0 0 0 0 0 0 0 0 0 0 0 0 0 0 0 0 0 0 0 0 0 0 0 0 0 0 0 0 0 0 0 0 0 0
0 0 0 0 0 0 0 0 0 0 0 0 0 0 0 0 0 0 0 0 0 0 0 0 0 0 0 0 0 0 0 0 0 0 0 0 0 0 0 0 0 0 0
0 0 0 0 0 0 0 0 0 0 0 0 0 0 0 0 0 0 0 0 0 0 0 0 0 0 0 0 0 0 0 0 0 0 0 0 0 0 0 0 0 0 0
0 0 0 0 0 0 0 0 0 0 0 0 0 0 0 0 0 0 0 0 0 0 0 0 0 0 0 0 0 0 0 0 0 0 0 0 0 0 0 0 0 0 0
0 0 0 0 0 0 0 0 0 0 0 0 0 0 0 0 0 0 0 0 0 0 0 0 0 0 0 0 0 0 0 0 0 0 0 0 0 0 0 0 0 0 0
0 0 0 0 0 0 0 0 0 0 0 0 0 0 0 0 0 0 0 0 0 0 0 0 0 0 0 0 0 0 0 0 0 0 0 0 0 0 0 0 0 0 0
0 0 0 0 0 0 0 0 0 0 0 0 0 0 0 0 0 0 0 0 0 0 0 0 0 0 0 0 0 0 0 0 0 0 0 0 0 0 0 0 0 0 0
0 0 0 0 0 0 0 0 0 0 0 0 0 0 0 0 0 0 0 0 0 0 0 0 0 0 0 0 0 0 0 0 0 0 0 0 0 0 0 0 0 0 0
0 0 0 0 0 0 0 0 0 0 0 0 0 0 0 0 0 0 0 0 0 0 0 0 0 0 0 0 0 0 0 0 0 0 0 0 0 0 0 0 0 0 0
0 0 0 0 0 0 0 0 0 0 0 0 0 0 0 0 0 0 0 0 0 0 0 0 0 0 0 0 0 0 0 0 0 0 0 0 0 0 0 0 0 0 0
0 0 0 0 0 0 0 0 0 0 0 0 0 0 0 0 0 0 0 0 0 0 0 0 0 0 0 0 0 0 0 0 0 0 0 0 0 0 0 0 0 0 0
0 0 0 0 0 0 0 0 0 0 0 0 0 0 0 0 0 0 0 0 0 0 0 0 0 0 0 0 0 0 0 0 0 0 0 0 0 0 0 0 0 0 0
0 0 0 0 0 0 0 0 0 0 0 0 0 0 0 0 0 0 0 0 0 0 0 0 0 0 0 0 0 0 0 0 0 0 0 0 0 0 0 0 0 0 0
0 0 0 0 0 0 0 0 0 0 0 0 0 0 0 0 0 0 0 0 0 0 0 0 0 0 0 0 0 0 0 0 0 0 0 0 0 0 0 0 0 0 0
0 0 0 0 0 0 0 0 0 0 0 0 0 0 0 0 0 0 0 0 0 0 0 0 0 0 0 0 0 0 0 0 0 0 0 0 0 0 0 0 0 0 0
0 0 0 0 0 0 0 0 0 0 0 0 0 0 0 0 0 0 0 0 0 0 0 0 0 0 0 0 0 0 0 0 0 0 0 0 0 0 0 0 0 0 0
0 0 0 0 0 0 0 0 0 0 0 0 0 0 0 0 0 0 0 0 0 0 0 0 0 0 0 0 0 0 0 0 0 0 0 0 0 0 0 0 0 0 0
0 0 0 0 0 0 0 0 0 0 0 0 0 0 0 0 0 0 0 0 0 0 0 0 0 0 0 0 0 0 0 0 0 0 0 0 0 0 0 0 0 0 0
Wind_Speed
1 1 1 1 1 1 1 2 2 2 2 3 4 4 4 5 5 5 4 4 5 4 4 4 4 4 3 3 3 2 3 2 4 3 2 1 2 3 3 3 3 3 4
1 1 1 1 1 1 1 2 2 2 3 3 3 3 4 5 5 5 5 5 6 6 5 5 5 3 4 4 3 4 4 3 4 5 3 2 3 3 2 3 3 3 3
2 1 1 1 1 1 2 2 2 2 3 3 3 3 5 5 5 5 6 6 6 6 6 6 5 5 5 4 5 5 4 3 3 4 3 2 2 2 2 2 3 3 3
2 2 2 2 2 2 2 2 2 2 2 3 3 3 4 4 5 5 5 5 5 6 6 6 6 6 7 6 5 6 4 4 3 3 3 2 2 2 1 2 3 3 3
2 2 2 3 3 2 2 2 2 2 2 3 2 3 3 3 4 5 5 5 5 5 5 5 5 6 8 6 5 5 5 5 4 4 3 3 2 2 3 2 4 3 3
1 2 3 2 2 2 2 2 2 2 2 2 2 2 3 3 5 6 5 5 5 5 5 4 4 5 6 7 7 6 6 7 6 5 4 5 5 4 3 3 3 3 3
2 2 2 2 2 3 3 2 2 2 2 2 2 2 3 4 5 6 6 4 4 4 4 4 3 3 5 4 5 6 6 8 9 7 6 6 5 5 4 4 4 4 4
2 2 2 2 3 3 3 3 3 2 2 2 2 2 2 4 5 4 4 3 3 4 4 4 4 4 4 4 4 4 5 6 7 6 6 6 6 5 6 5 5 4 3
2 2 3 3 3 3 3 3 3 2 2 2 2 2 2 4 4 4 2 2 2 3 3 4 4 4 5 5 4 4 4 4 6 7 8 7 6 5 4 2 2 2 4
2 3 3 2 2 2 3 3 3 2 2 3 3 2 2 3 4 4 3 2 2 2 2 3 5 5 6 6 5 5 5 5 3 4 5 6 4 4 6 5 4 4 2
2 2 2 2 2 2 2 2 2 2 2 2 2 2 2 3 4 4 4 2 2 2 2 2 3 6 6 7 6 5 7 5 3 3 3 3 3 3 4 4 4 4 4
2 2 2 2 2 2 1 2 2 2 2 2 2 2 2 3 3 4 4 4 3 2 2 2 3 5 5 6 5 6 6 5 2 2 2 2 2 3 3 3 4 4 4
2 2 2 2 2 2 1 1 2 2 2 2 2 2 2 2 2 4 4 4 4 2 2 3 4 3 3 3 4 4 4 3 2 2 3 3 3 3 2 2 3 3 3
1 2 2 2 2 2 2 1 1 1 2 2 2 2 3 2 2 2 2 2 3 2 2 2 2 2 2 2 2 2 2 2 2 3 3 2 2 1 2 2 2 2 2
1 1 2 2 2 2 2 2 2 2 2 2 2 2 2 3 4 4 2 1 1 2 1 0 1 1 1 1 1 1 1 1 1 2 1 1 1 1 1 1 1 2 2
1 1 1 1 1 2 2 3 4 4 5 5 5 4 4 5 6 5 4 4 3 2 1 1 1 2 1 1 1 1 1 1 1 1 2 2 2 2 2 1 1 1 2
1 1 1 1 1 2 2 2 3 4 5 5 5 6 6 6 6 5 5 4 3 1 0 1 1 1 1 1 1 1 2 2 2 1 2 2 2 2 1 1 1 2 2
1 2 2 1 1 1 1 1 1 2 3 4 5 6 7 7 6 6 5 4 2 2 1 1 1 1 1 1 1 1 2 1 1 1 1 1 1 1 1 1 2 2 3
1 1 1 1 1 1 1 1 1 2 2 3 3 4 6 6 6 6 5 2 1 1 1 1 1 1 1 1 1 1 1 1 1 1 1 1 1 1 1 2 2 4 3
1 3 2 1 1 1 1 1 1 1 2 2 3 3 3 3 3 3 3 2 1 1 1 1 1 1 1 1 1 1 1 1 1 1 1 1 1 1 2 2 2 2 3
1 1 2 2 1 1 1 1 1 1 2 2 3 3 3 2 2 2 2 2 1 2 2 2 2 2 1 1 1 1 1 2 2 2 2 2 2 2 2 2 2 2 2
1 1 1 1 1 2 2 2 2 2 2 2 3 3 4 2 2 2 2 2 2 2 2 2 2 2 2 1 1 1 2 2 2 2 2 2 2 2 2 2 2 2 2
1 1 1 1 1 2 2 2 2 2 2 2 3 2 2 2 2 2 2 2 2 2 2 2 2 2 2 2 2 2 3 3 3 3 3 2 2 2 2 3 3 3 3
1 1 2 2 1 1 2 2 2 2 2 2 2 3 2 2 2 3 3 3 3 3 2 2 2 3 4 3 3 3 3 3 3 3 4 4 3 3 3 3 3 4 3
1 1 2 2 2 2 2 2 2 2 3 3 3 3 3 3 3 3 3 3 3 3 4 3 3 3 4 5 5 4 6 7 6 4 4 4 4 4 4 4 3 3 3
1 1 1 1 2 2 2 2 3 3 3 3 3 3 3 3 3 3 3 3 3 4 4 4 4 5 6 5 6 7 9 9 8 8 4 3 4 4 4 3 4 4 4
Wind_Direction
333 308 299 294 280 247 232 239 243 247 229 223 223 214 214 213 206 203 209 207 207 215 217 215 226 219 208 208 207 213 225 221 249 267 264 268 244 262 281 277 276 268 277
315 314 297 300 301 274 265 262 256 254 252 234 216 215 223 214 208 206 210 211 211 215 219 218 224 221 217 212 208 214 221 223 233 263 273 270 254 256 265 274 284 284 277
340 339 336 325 307 289 280 276 264 255 256 246 224 222 225 218 213 210 209 212 214 218 218 218 222 215 223 221 214 215 221 227 229 243 262 265 269 273 284 283 282 277 284
350 345 341 329 311 295 287 280 274 259 256 244 239 237 235 223 217 212 210 212 216 220 222 221 220 218 221 220 220 216 214 218 222 234 252 255 252 261 253 269 280 272 279
348 341 328 330 330 329 317 305 294 282 271 250 238 244 240 227 221 214 209 210 212 218 224 225 226 227 228 223 222 215 208 214 220 229 243 250 243 244 245 247 262 280 274
335 325 329 338 340 335 325 317 309 298 292 266 243 238 245 245 240 230 219 209 209 215 223 228 232 232 234 237 241 235 223 216 217 222 233 239 244 244 246 249 259 276 274
328 329 329 332 331 326 322 330 318 298 299 276 257 253 254 261 258 241 229 216 208 214 221 224 232 240 234 229 240 242 242 242 230 221 227 234 237 232 229 239 244 252 262
329 325 328 332 325 328 329 326 320 308 293 278 261 262 267 272 269 255 236 220 211 219 223 223 226 233 230 227 231 237 237 241 241 234 227 230 233 229 219 227 239 255 273
316 316 319 314 314 323 321 317 314 313 315 305 277 259 261 276 279 270 256 214 220 229 234 231 229 230 238 239 230 238 248 251 252 252 253 251 250 249 237 218 228 244 264
299 303 307 306 302 305 304 305 308 306 306 314 310 290 277 278 280 278 264 226 225 237 240 244 247 249 245 238 225 225 242 247 240 247 253 255 245 238 235 222 219 229 250
308 314 317 316 309 304 308 308 307 312 315 311 310 308 293 283 284 281 271 244 224 232 240 245 253 261 258 252 243 233 243 249 225 231 239 242 236 226 227 228 227 227 230
323 327 324 324 324 330 322 319 322 325 319 310 314 313 308 297 293 286 281 272 264 235 240 247 254 260 260 260 252 254 255 248 223 226 235 240 244 247 241 230 230 234 235
341 337 329 334 335 330 312 315 326 331 318 306 309 307 309 313 303 301 294 288 286 259 248 258 264 271 268 265 277 278 268 241 220 228 238 246 247 250 255 240 232 234 246
331 329 334 339 335 333 326 323 315 310 303 301 302 299 304 307 303 297 284 275 280 274 273 279 293 305 297 293 297 303 290 270 240 233 237 250 249 239 247 253 248 247 253
329 327 333 334 329 326 327 313 310 296 299 303 291 286 289 291 292 297 292 271 252 237 205 230 268 275 279 289 296 301 301 301 284 285 268 254 254 254 267 275 260 261 245
331 334 326 326 327 329 333 333 325 322 326 335 330 322 303 308 315 316 311 299 287 271 236 233 246 243 237 249 262 284 291 291 284 276 275 268 261 261 272 280 274 257 262
264 289 297 310 310 315 324 333 330 332 336 338 338 338 337 333 331 331 324 315 322 346 321 262 259 258 247 240 250 259 268 278 279 274 273 270 268 261 261 264 259 261 267
280 289 302 290 291 297 304 309 311 320 328 330 332 338 342 343 344 348 351 359 1 7 338 284 277 280 272 258 253 258 271 290 297 295 290 292 286 277 273 264 255 254 263
290 284 287 293 294 296 302 308 312 315 315 318 326 333 343 345 351 359 8 23 6 349 337 315 300 293 291 273 262 257 259 268 279 283 288 287 284 281 280 281 274 276 270
281 293 313 310 312 311 308 304 304 306 309 312 316 321 333 345 353 352 4 10 358 331 323 316 309 300 287 277 262 252 254 258 263 260 265 272 273 265 265 268 272 278 270
287 293 317 327 301 289 287 286 285 287 290 298 303 310 322 331 336 333 332 333 322 312 310 308 306 303 296 284 262 245 244 253 253 254 259 260 258 259 261 260 263 266 274
263 273 281 277 288 287 290 288 288 287 291 297 305 315 330 338 331 320 315 313 308 300 293 290 291 289 285 275 264 256 250 250 248 247 252 255 255 257 261 260 263 266 268
225 254 282 280 278 283 303 299 293 290 293 297 302 313 319 316 311 306 305 306 307 305 305 296 288 291 290 281 261 245 247 252 249 239 239 247 248 250 249 253 257 263 266
212 240 261 273 276 275 278 285 287 287 288 292 298 300 300 299 299 300 301 301 301 300 297 286 277 279 281 281 274 259 252 251 242 234 227 230 238 244 244 248 252 253 256
224 241 254 261 270 275 278 281 282 284 286 288 289 292 294 296 294 294 294 294 293 292 291 286 281 279 278 275 273 267 269 268 260 240 221 223 231 235 239 243 248 253 258
239 243 250 259 263 265 266 270 274 279 281 284 285 284 286 288 288 290 293 292 293 291 288 284 280 279 281 277 272 270 271 271 269 262 239 220 223 232 231 236 239 243 249